This demonstration page uses our WeatherBlox Daily Observations layout. Learn more.

Left ArrowRight Arrow

41.86663, -103.66717

Hourly Observations for March 13, 2016

Temp ( °F °C ) Dew Point ( °F °C ) Humidity (%) Winds ( mph kmh ) Pressure ( in mb ) Visibility ( mi km ) Precip ( " mm )
12:53 am 00:53 Clear 42 5.6 38 3.3 85 85 N 6 9 29.64 1004 10 16 N/A
1:53 am 01:53 Clear 40 4.4 37 2.8 89 89 NNW 5 7 29.64 1004 10 16 N/A
3:53 am 03:53 Clear 41 5 35 1.7 79 79 NW 6 9 29.64 1004 10 16 N/A
4:53 am 04:53 Clear 43 6.1 33 0.6 68 68 WNW 7 11 29.65 1004 10 16 N/A
5:53 am 05:53 Clear 40 4.4 32 undefined 73 73 NW 8 13 29.69 1005 10 16 N/A
6:53 am 06:53 Clear 41 5 31 -0.6 67 67 WNW 12 19 29.73 1007 10 16 N/A
7:53 am 07:53 Sunny 40 4.4 31 -0.6 70 70 NW 8 13 29.77 1008 10 16 N/A
8:53 am 08:53 Sunny 46 7.8 32 undefined 58 58 WNW 12 19 29.78 1008 10 16 N/A
9:53 am 09:53 Sunny 54 12.2 31 -0.6 42 42 WNW 21 33 29.76 1008 10 16 N/A
10:53 am 10:53 Sunny 58 14.4 28 -2.2 32 32 NW 17 28 29.75 1008 10 16 N/A
11:53 am 11:53 Sunny 62 16.7 25 -3.9 24 24 WNW 16 26 29.74 1007 10 16 N/A
12:53 pm 12:53 Sunny 66 18.9 21 -6.1 18 18 WNW 21 33 29.71 1006 10 16 N/A
1:53 pm 13:53 Sunny 67 19.4 22 -5.6 18 18 WNW 17 28 29.70 1006 10 16 N/A
2:53 pm 14:53 Sunny 64 17.8 22 -5.6 20 20 WNW 15 24 29.69 1006 10 16 N/A
3:53 pm 15:53 Sunny 66 18.9 22 -5.6 19 19 WNW 10 17 29.68 1005 10 16 N/A
4:53 pm 16:53 Sunny 63 17.2 20 -6.7 19 19 WNW 17 28 29.68 1005 10 16 N/A
5:53 pm 17:53 Sunny 60 15.6 24 -4.4 25 25 NW 7 11 29.70 1006 10 16 N/A
6:53 pm 18:53 Sunny 58 14.4 26 -3.3 29 29 NW 5 7 29.69 1006 10 16 N/A
7:53 pm 19:53 Clear 53 11.7 25 -3.9 34 34 W 3 6 29.71 1006 10 16 N/A
8:53 pm 20:53 Clear 49 9.4 28 -2.2 44 44 NNW 6 9 29.72 1007 10 16 N/A
9:53 pm 21:53 Clear 43 6.1 29 -1.7 58 58 NW 6 9 29.72 1007 10 16 N/A
10:53 pm 22:53 Clear 43 6.1 29 -1.7 58 58 N 6 9 29.71 1006 10 16 N/A
11:53 pm 23:53 Clear 42 5.6 30 -1.1 62 62 N 8 13 29.70 1006 10 16 N/A

Powered by AerisWeather